When you browse on this site, cookies collect data to enhance your experience and personalize the content and advertising you see.
Visit our Privacy Policy to learn more. By continuing to use the site, you agree to this use of cookies and data.
  • In Romania
  • List of Countries
  • For 7 days
  • Water Temperature
  • Weather Map
  • Weather Widgets
  • user-avatar
    Login

    Hourly Weather Cacheu

    Today, 18 November, Monday

    Time Temperature Precipitation Wind Pressure Humidity
    00:00 +28°C° 0 mm 2 mps 756 mmHg 55%
    01:00 +28°C° 0 mm 2 mps 756 mmHg 57%
    02:00 +27°C° 0 mm 2 mps 756 mmHg 59%
    03:00 +27°C° 0 mm 2 mps 756 mmHg 62%
    04:00 +26°C° 0 mm 2 mps 755 mmHg 65%
    05:00 +26°C° 0 mm 2 mps 756 mmHg 70%
    06:00 +27°C° 0 mm 2 mps 756 mmHg 64%
    07:00 +28°C° 0 mm 2 mps 756 mmHg 58%
    08:00 +29°C° 0 mm 2 mps 757 mmHg 53%
    09:00 +32°C° 0 mm 2 mps 756 mmHg 44%
    10:00 +35°C° 0 mm 2 mps 756 mmHg 35%
    11:00 +38°C° 0 mm 2 mps 756 mmHg 29%
    12:00 +38°C° 0 mm 2 mps 755 mmHg 27%
    13:00 +39°C° 0 mm 2 mps 755 mmHg 26%
    14:00 +40°C° 0 mm 2 mps 754 mmHg 24%
    15:00 +38°C° 0 mm 2 mps 754 mmHg 31%
    16:00 +36°C° 0 mm 2 mps 754 mmHg 37%
    17:00 +34°C° 0 mm 2 mps 754 mmHg 43%
    18:00 +32°C° 0 mm 2 mps 755 mmHg 47%
    19:00 +30°C° 0 mm 2 mps 756 mmHg 51%
    20:00 +29°C° 0 mm 2 mps 756 mmHg 55%
    21:00 +28°C° 0 mm 2 mps 756 mmHg 56%
    22:00 +28°C° 0 mm 2 mps 756 mmHg 58%
    23:00 +27°C° 0 mm 2 mps 756 mmHg 59%

    Tomorrow, 19 November, Tuesday

    Time Temperature Precipitation Wind Pressure Humidity
    00:00 +27°C° 0 mm 2 mps 756 mmHg 59%
    01:00 +27°C° 0 mm 2 mps 756 mmHg 60%
    02:00 +27°C° 0 mm 3 mps 755 mmHg 60%
    03:00 +26°C° 0 mm 2 mps 755 mmHg 57%
    04:00 +26°C° 0 mm 2 mps 755 mmHg 55%
    05:00 +25°C° 0 mm 1 mps 755 mmHg 52%
    06:00 +27°C° 0 mm 2 mps 756 mmHg 49%
    07:00 +28°C° 0 mm 2 mps 756 mmHg 46%
    08:00 +30°C° 0 mm 3 mps 757 mmHg 44%
    09:00 +33°C° 0 mm 3 mps 757 mmHg 36%
    10:00 +36°C° 0 mm 3 mps 756 mmHg 28%
    11:00 +38°C° 0 mm 3 mps 756 mmHg 21%
    12:00 +39°C° 0 mm 3 mps 756 mmHg 20%
    13:00 +40°C° 0 mm 3 mps 755 mmHg 19%
    14:00 +40°C° 0 mm 2 mps 754 mmHg 18%
    15:00 +38°C° 0 mm 3 mps 754 mmHg 26%
    16:00 +36°C° 0 mm 3 mps 754 mmHg 34%
    17:00 +33°C° 0 mm 3 mps 754 mmHg 42%
    18:00 +31°C° 0 mm 3 mps 755 mmHg 48%
    19:00 +29°C° 0 mm 2 mps 755 mmHg 54%
    20:00 +28°C° 0 mm 2 mps 756 mmHg 60%
    21:00 +27°C° 0 mm 2 mps 756 mmHg 58%
    22:00 +27°C° 0 mm 2 mps 756 mmHg 56%
    23:00 +27°C° 0 mm 1 mps 756 mmHg 54%

    Day after tomorrow, 20 November, Wednesday

    Time Temperature Precipitation Wind Pressure Humidity
    00:00 +26°C° 0 mm 1 mps 756 mmHg 55%
    01:00 +25°C° 0 mm 1 mps 756 mmHg 56%
    02:00 +25°C° 0 mm 1 mps 756 mmHg 57%
    03:00 +25°C° 0 mm 1 mps 756 mmHg 54%
    04:00 +24°C° 0 mm 1 mps 756 mmHg 50%
    05:00 +24°C° 0 mm 2 mps 756 mmHg 47%
    06:00 +26°C° 0 mm 2 mps 756 mmHg 43%
    07:00 +27°C° 0 mm 2 mps 756 mmHg 39%
    08:00 +28°C° 0 mm 2 mps 757 mmHg 35%
    09:00 +31°C° 0 mm 2 mps 757 mmHg 30%
    10:00 +35°C° 0 mm 3 mps 757 mmHg 25%
    11:00 +37°C° 0 mm 3 mps 757 mmHg 20%
    12:00 +38°C° 0 mm 3 mps 756 mmHg 20%
    13:00 +39°C° 0 mm 3 mps 755 mmHg 20%
    14:00 +39°C° 0 mm 3 mps 755 mmHg 20%
    15:00 +37°C° 0 mm 3 mps 755 mmHg 30%
    16:00 +35°C° 0 mm 3 mps 755 mmHg 39%
    17:00 +33°C° 0 mm 3 mps 755 mmHg 49%
    18:00 +30°C° 0 mm 3 mps 756 mmHg 54%
    19:00 +29°C° 0 mm 3 mps 756 mmHg 58%
    20:00 +28°C° 0 mm 2 mps 757 mmHg 63%
    21:00 +27°C° 0 mm 2 mps 757 mmHg 62%
    22:00 +27°C° 0 mm 2 mps 757 mmHg 61%
    23:00 +26°C° 0 mm 2 mps 757 mmHg 60%

    21 November, Thursday

    Time Temperature Precipitation Wind Pressure Humidity
    00:00 +26°C° 0 mm 2 mps 757 mmHg 62%
    01:00 +26°C° 0 mm 2 mps 756 mmHg 65%
    02:00 +25°C° 0 mm 2 mps 756 mmHg 68%
    03:00 +25°C° 0 mm 1 mps 756 mmHg 69%
    04:00 +24°C° 0 mm 1 mps 756 mmHg 70%
    05:00 +22°C° 0 mm 0 mps 756 mmHg 72%
    06:00 +23°C° 0 mm 0 mps 756 mmHg 63%
    07:00 +27°C° 0 mm 1 mps 757 mmHg 54%
    08:00 +29°C° 0 mm 1 mps 757 mmHg 46%
    09:00 +32°C° 0 mm 1 mps 757 mmHg 39%
    10:00 +34°C° 0 mm 1 mps 757 mmHg 33%
    11:00 +37°C° 0 mm 1 mps 757 mmHg 27%
    12:00 +39°C° 0 mm 2 mps 756 mmHg 26%
    13:00 +39°C° 0 mm 3 mps 756 mmHg 26%
    14:00 +40°C° 0 mm 3 mps 755 mmHg 25%
    15:00 +37°C° 0 mm 3 mps 755 mmHg 34%
    16:00 +35°C° 0 mm 3 mps 755 mmHg 42%
    17:00 +33°C° 0 mm 3 mps 755 mmHg 50%
    18:00 +30°C° 0 mm 3 mps 755 mmHg 55%
    19:00 +29°C° 0 mm 3 mps 756 mmHg 59%
    20:00 +27°C° 0 mm 2 mps 756 mmHg 63%
    21:00 +27°C° 0 mm 2 mps 756 mmHg 62%
    22:00 +27°C° 0 mm 2 mps 757 mmHg 62%
    23:00 +26°C° 0 mm 2 mps 757 mmHg 61%

    22 November, Friday

    Time Temperature Precipitation Wind Pressure Humidity
    00:00 +26°C° 0 mm 2 mps 756 mmHg 61%
    01:00 +26°C° 0 mm 2 mps 756 mmHg 62%
    02:00 +25°C° 0 mm 2 mps 756 mmHg 63%
    03:00 +25°C° 0 mm 1 mps 756 mmHg 63%
    04:00 +24°C° 0 mm 1 mps 756 mmHg 63%
    05:00 +24°C° 0 mm 1 mps 756 mmHg 64%
    06:00 +25°C° 0 mm 1 mps 756 mmHg 59%
    07:00 +27°C° 0 mm 1 mps 757 mmHg 55%
    08:00 +29°C° 0 mm 1 mps 757 mmHg 51%
    09:00 +31°C° 0 mm 2 mps 757 mmHg 42%
    10:00 +35°C° 0 mm 2 mps 757 mmHg 34%
    11:00 +38°C° 0 mm 3 mps 757 mmHg 26%
    12:00 +38°C° 0 mm 3 mps 756 mmHg 24%
    13:00 +39°C° 0 mm 3 mps 756 mmHg 22%
    14:00 +41°C° 0 mm 4 mps 755 mmHg 20%
    15:00 +38°C° 0 mm 4 mps 755 mmHg 30%
    16:00 +35°C° 0 mm 3 mps 755 mmHg 40%
    17:00 +33°C° 0 mm 3 mps 755 mmHg 50%
    18:00 +30°C° 0 mm 3 mps 755 mmHg 58%
    19:00 +28°C° 0 mm 3 mps 756 mmHg 67%
    20:00 +26°C° 0 mm 2 mps 756 mmHg 75%
    21:00 +26°C° 0 mm 2 mps 756 mmHg 73%
    22:00 +26°C° 0 mm 2 mps 756 mmHg 70%
    23:00 +25°C° 0 mm 2 mps 757 mmHg 67%

    23 November, Saturday

    Time Temperature Precipitation Wind Pressure Humidity
    00:00 +25°C° 0 mm 2 mps 756 mmHg 67%
    01:00 +25°C° 0 mm 2 mps 756 mmHg 67%
    02:00 +24°C° 0 mm 2 mps 756 mmHg 67%
    03:00 +24°C° 0 mm 2 mps 756 mmHg 66%
    04:00 +23°C° 0 mm 1 mps 756 mmHg 66%
    05:00 +23°C° 0 mm 1 mps 756 mmHg 65%
    06:00 +25°C° 0 mm 1 mps 756 mmHg 59%
    07:00 +26°C° 0 mm 2 mps 757 mmHg 53%
    08:00 +28°C° 0 mm 2 mps 757 mmHg 47%
    09:00 +31°C° 0 mm 2 mps 757 mmHg 39%
    10:00 +35°C° 0 mm 3 mps 757 mmHg 31%
    11:00 +38°C° 0 mm 4 mps 757 mmHg 23%
    12:00 +40°C° 0 mm 4 mps 756 mmHg 21%
    13:00 +41°C° 0 mm 4 mps 755 mmHg 20%
    14:00 +42°C° 0 mm 4 mps 754 mmHg 18%
    15:00 +40°C° 0 mm 4 mps 754 mmHg 25%
    16:00 +37°C° 0 mm 3 mps 754 mmHg 31%
    17:00 +35°C° 0 mm 3 mps 754 mmHg 37%
    18:00 +31°C° 0 mm 2 mps 755 mmHg 47%
    19:00 +29°C° 0 mm 2 mps 755 mmHg 56%
    20:00 +27°C° 0 mm 2 mps 756 mmHg 66%
    21:00 +26°C° 0 mm 2 mps 756 mmHg 65%
    22:00 +26°C° 0 mm 2 mps 756 mmHg 64%
    23:00 +26°C° 0 mm 2 mps 756 mmHg 62%
    Show more